Time,TemperatureF,DewpointF,PressureIn,WindDirection,WindDirectionDegrees,WindSpeedMPH,WindSpeedGustMPH,Humidity,HourlyPrecipIn,Conditions,Clouds,dailyrainin,SoftwareType,DateUTC
2013-07-04 00:02:00,58.0,57.0,29.83,SW,232,2.0,5.0,95,-99.99,,,-99.99,,2013-07-04 07:02:00,
2013-07-04 00:11:00,58.0,57.0,29.83,SW,232,2.0,5.0,95,-99.99,,,-99.99,,2013-07-04 07:11:00,
2013-07-04 00:21:00,58.0,57.0,29.83,SW,232,2.0,5.0,95,-99.99,,,-99.99,,2013-07-04 07:21:00,
2013-07-04 00:34:00,58.0,57.0,29.83,SW,232,2.0,5.0,95,-99.99,,,-99.99,,2013-07-04 07:34:00,
2013-07-04 00:43:00,58.0,57.0,29.82,SW,229,2.0,5.0,95,-99.99,,,-99.99,,2013-07-04 07:43:00,
2013-07-04 00:52:00,58.0,57.0,29.82,SW,229,2.0,5.0,95,-99.99,,,-99.99,,2013-07-04 07:52:00,
2013-07-04 01:02:00,57.0,56.0,29.82,WSW,254,0.0,3.0,96,-99.99,,,-99.99,,2013-07-04 08:02:00,
2013-07-04 01:11:00,57.0,56.0,29.82,WSW,254,0.0,3.0,96,-99.99,,,-99.99,,2013-07-04 08:11:00,
2013-07-04 01:21:00,57.0,56.0,29.82,WSW,254,0.0,3.0,96,-99.99,,,-99.99,,2013-07-04 08:21:00,
2013-07-04 01:33:00,57.0,56.0,29.82,WSW,254,0.0,3.0,96,-99.99,,,-99.99,,2013-07-04 08:33:00,
2013-07-04 01:42:00,57.0,56.0,29.82,WSW,254,0.0,3.0,96,-99.99,,,-99.99,,2013-07-04 08:42:00,
2013-07-04 01:53:00,57.0,56.0,29.82,WSW,247,1.0,3.0,96,-99.99,,,-99.99,,2013-07-04 08:53:00,
2013-07-04 02:02:00,57.0,56.0,29.82,WSW,247,1.0,3.0,96,-99.99,,,-99.99,,2013-07-04 09:02:00,
2013-07-04 02:11:00,57.0,56.0,29.82,WSW,247,1.0,3.0,96,-99.99,,,-99.99,,2013-07-04 09:11:00,
2013-07-04 02:22:00,57.0,56.0,29.82,SW,230,2.0,3.0,96,-99.99,,,-99.99,,2013-07-04 09:22:00,
2013-07-04 02:32:00,57.0,56.0,29.82,SW,230,2.0,3.0,96,-99.99,,,-99.99,,2013-07-04 09:32:00,
2013-07-04 02:42:00,57.0,56.0,29.82,SW,230,2.0,3.0,96,-99.99,,,-99.99,,2013-07-04 09:42:00,
2013-07-04 02:52:00,57.0,56.0,29.82,SW,230,2.0,3.0,96,-99.99,,,-99.99,,2013-07-04 09:52:00,
2013-07-04 03:01:00,57.0,56.0,29.81,SW,230,0.0,3.0,97,-99.99,,,-99.99,,2013-07-04 10:01:00,
2013-07-04 03:11:00,57.0,56.0,29.81,SW,230,0.0,3.0,97,-99.99,,,-99.99,,2013-07-04 10:11:00,
2013-07-04 03:22:00,57.0,56.0,29.81,SW,230,0.0,3.0,97,-99.99,,,-99.99,,2013-07-04 10:22:00,
2013-07-04 03:33:00,57.0,56.0,29.81,SW,230,0.0,3.0,97,-99.99,,,-99.99,,2013-07-04 10:33:00,
2013-07-04 03:42:00,57.0,56.0,29.80,SW,230,1.0,2.0,97,-99.99,,,-99.99,,2013-07-04 10:42:00,
2013-07-04 03:53:00,57.0,56.0,29.80,SW,230,0.0,2.0,97,-99.99,,,-99.99,,2013-07-04 10:53:00,
2013-07-04 04:02:00,57.0,56.0,29.80,SW,230,0.0,2.0,97,-99.99,,,-99.99,,2013-07-04 11:02:00,
2013-07-04 04:11:00,57.0,56.0,29.79,West,261,1.0,2.0,97,-99.99,,,-99.99,,2013-07-04 11:11:00,
2013-07-04 04:22:00,57.0,56.0,29.79,WSW,248,0.0,3.0,97,-99.99,,,-99.99,,2013-07-04 11:22:00,
2013-07-04 04:33:00,57.0,56.0,29.79,WSW,251,0.0,2.0,97,-99.99,,,-99.99,,2013-07-04 11:33:00,
2013-07-04 04:43:00,57.0,56.0,29.79,WSW,251,0.0,2.0,97,-99.99,,,-99.99,,2013-07-04 11:43:00,
2013-07-04 04:53:00,57.0,56.0,29.79,WSW,251,0.0,2.0,97,-99.99,,,-99.99,,2013-07-04 11:53:00,
2013-07-04 05:01:00,57.0,56.0,29.79,WSW,251,0.0,2.0,97,-99.99,,,-99.99,,2013-07-04 12:01:00,
2013-07-04 05:11:00,57.0,56.0,29.79,WSW,251,0.0,2.0,97,-99.99,,,-99.99,,2013-07-04 12:11:00,
2013-07-04 05:33:00,57.0,56.0,29.79,WSW,253,0.0,0.0,97,-99.99,,,-99.99,,2013-07-04 12:33:00,
2013-07-04 05:43:00,57.0,56.0,29.79,WSW,253,0.0,0.0,97,-99.99,,,-99.99,,2013-07-04 12:43:00,
2013-07-04 05:52:00,57.0,56.0,29.79,WSW,253,0.0,0.0,97,-99.99,,,-99.99,,2013-07-04 12:52:00,
2013-07-04 06:11:00,56.0,55.0,29.78,WSW,253,0.0,0.0,97,-99.99,,,-99.99,,2013-07-04 13:11:00,
2013-07-04 06:22:00,56.0,55.0,29.78,WSW,253,2.0,2.0,97,-99.99,,,-99.99,,2013-07-04 13:22:00,
2013-07-04 06:33:00,56.0,55.0,29.78,WSW,253,2.0,2.0,97,-99.99,,,-99.99,,2013-07-04 13:33:00,
2013-07-04 06:53:00,56.0,55.0,29.79,West,264,0.0,2.0,98,-99.99,,,-99.99,,2013-07-04 13:53:00,
2013-07-04 07:02:00,56.0,55.0,29.79,West,264,0.0,1.0,98,-99.99,,,-99.99,,2013-07-04 14:02:00,
2013-07-04 07:11:00,56.0,55.0,29.79,West,264,0.0,1.0,98,-99.99,,,-99.99,,2013-07-04 14:11:00,
2013-07-04 07:22:00,56.0,55.0,29.80,WSW,243,0.0,2.0,98,-99.99,,,-99.99,,2013-07-04 14:22:00,
2013-07-04 07:33:00,56.0,55.0,29.80,WSW,243,2.0,2.0,98,-99.99,,,-99.99,,2013-07-04 14:33:00,
2013-07-04 07:43:00,56.0,55.0,29.80,WSW,243,2.0,2.0,98,-99.99,,,-99.99,,2013-07-04 14:43:00,
2013-07-04 07:53:00,56.0,55.0,29.80,WSW,243,2.0,2.0,98,-99.99,,,-99.99,,2013-07-04 14:53:00,
2013-07-04 08:01:00,57.0,56.0,29.80,SW,234,2.0,4.0,98,-99.99,,,-99.99,,2013-07-04 15:01:00,
2013-07-04 08:11:00,57.0,56.0,29.80,WSW,240,1.0,6.0,98,-99.99,,,-99.99,,2013-07-04 15:11:00,
2013-07-04 08:23:00,57.0,56.0,29.80,WSW,240,1.0,6.0,98,-99.99,,,-99.99,,2013-07-04 15:23:00,
2013-07-04 08:33:00,57.0,56.0,29.80,WSW,240,1.0,6.0,98,-99.99,,,-99.99,,2013-07-04 15:33:00,
2013-07-04 08:43:00,57.0,56.0,29.80,WSW,240,1.0,6.0,98,-99.99,,,-99.99,,2013-07-04 15:43:00,
2013-07-04 08:52:00,58.0,57.0,29.82,SW,217,3.0,6.0,98,-99.99,,,-99.99,,2013-07-04 15:52:00,
2013-07-04 09:02:00,58.0,57.0,29.82,SW,217,3.0,6.0,98,-99.99,,,-99.99,,2013-07-04 16:02:00,
2013-07-04 09:11:00,58.0,57.0,29.82,SSW,210,6.0,8.0,98,-99.99,,,-99.99,,2013-07-04 16:11:00,
2013-07-04 09:22:00,58.0,57.0,29.82,SSW,210,6.0,8.0,98,-99.99,,,-99.99,,2013-07-04 16:22:00,
2013-07-04 09:33:00,59.0,58.0,29.82,SW,223,5.0,7.0,98,-99.99,,,-99.99,,2013-07-04 16:33:00,
2013-07-04 09:42:00,60.0,59.0,29.82,SW,215,2.0,8.0,97,-99.99,,,-99.99,,2013-07-04 16:42:00,
2013-07-04 09:52:00,61.0,60.0,29.82,SW,217,3.0,11.0,97,-99.99,,,-99.99,,2013-07-04 16:52:00,
2013-07-04 10:01:00,61.0,60.0,29.82,SW,217,3.0,11.0,97,-99.99,,,-99.99,,2013-07-04 17:01:00,
2013-07-04 10:11:00,62.0,61.0,29.82,SSW,205,7.0,10.0,95,-99.99,,,-99.99,,2013-07-04 17:11:00,
2013-07-04 10:22:00,62.0,61.0,29.82,SSW,205,7.0,10.0,95,-99.99,,,-99.99,,2013-07-04 17:22:00,
2013-07-04 10:33:00,66.0,60.0,29.81,SSW,213,7.0,10.0,81,-99.99,,,-99.99,,2013-07-04 17:33:00,
2013-07-04 10:43:00,66.0,60.0,29.81,SSW,213,7.0,10.0,81,-99.99,,,-99.99,,2013-07-04 17:43:00,
2013-07-04 10:53:00,66.0,60.0,29.81,SSW,213,7.0,10.0,81,-99.99,,,-99.99,,2013-07-04 17:53:00,
2013-07-04 11:01:00,66.0,60.0,29.81,SSW,213,7.0,10.0,81,-99.99,,,-99.99,,2013-07-04 18:01:00,
2013-07-04 11:11:00,66.0,60.0,29.81,SSW,213,7.0,10.0,81,-99.99,,,-99.99,,2013-07-04 18:11:00,
2013-07-04 11:33:00,69.0,58.0,29.81,SSW,212,6.0,13.0,68,-99.99,,,-99.99,,2013-07-04 18:33:00,
2013-07-04 11:43:00,69.0,58.0,29.81,SSW,212,6.0,13.0,68,-99.99,,,-99.99,,2013-07-04 18:43:00,
2013-07-04 11:52:00,69.0,58.0,29.81,SSW,212,6.0,13.0,68,-99.99,,,-99.99,,2013-07-04 18:52:00,
2013-07-04 12:01:00,69.0,58.0,29.81,SSW,212,6.0,13.0,68,-99.99,,,-99.99,,2013-07-04 19:01:00,
2013-07-04 12:11:00,69.0,58.0,29.81,SSW,212,6.0,13.0,68,-99.99,,,-99.99,,2013-07-04 19:11:00,
2013-07-04 12:34:00,74.0,59.0,29.81,SW,230,9.0,11.0,59,-99.99,,,-99.99,,2013-07-04 19:34:00,
2013-07-04 12:53:00,74.0,58.0,29.81,SW,232,13.0,14.0,58,-99.99,,,-99.99,,2013-07-04 19:53:00,
2013-07-04 13:01:00,74.0,59.0,29.81,WSW,244,13.0,14.0,59,-99.99,,,-99.99,,2013-07-04 20:01:00,
2013-07-04 13:11:00,74.0,59.0,29.81,WSW,244,13.0,14.0,59,-99.99,,,-99.99,,2013-07-04 20:11:00,
2013-07-04 13:22:00,74.0,59.0,29.81,WSW,244,13.0,14.0,59,-99.99,,,-99.99,,2013-07-04 20:22:00,
2013-07-04 13:33:00,71.0,59.0,29.81,WSW,243,16.0,16.0,65,-99.99,,,-99.99,,2013-07-04 20:33:00,
2013-07-04 13:42:00,71.0,59.0,29.81,WSW,243,16.0,16.0,65,-99.99,,,-99.99,,2013-07-04 20:42:00,
2013-07-04 13:53:00,71.0,59.0,29.81,WSW,243,16.0,16.0,65,-99.99,,,-99.99,,2013-07-04 20:53:00,
2013-07-04 14:01:00,71.0,59.0,29.81,WSW,243,16.0,16.0,65,-99.99,,,-99.99,,2013-07-04 21:01:00,
2013-07-04 14:11:00,71.0,59.0,29.81,WSW,243,16.0,16.0,65,-99.99,,,-99.99,,2013-07-04 21:11:00,
2013-07-04 14:22:00,70.0,58.0,29.81,West,264,6.0,14.0,66,-99.99,,,-99.99,,2013-07-04 21:22:00,
2013-07-04 14:32:00,70.0,58.0,29.81,West,264,6.0,14.0,66,-99.99,,,-99.99,,2013-07-04 21:32:00,
2013-07-04 14:43:00,70.0,59.0,29.80,WSW,250,1.0,14.0,67,-99.99,,,-99.99,,2013-07-04 21:43:00,
2013-07-04 14:53:00,70.0,58.0,29.80,WSW,244,8.0,13.0,66,-99.99,,,-99.99,,2013-07-04 21:53:00,
2013-07-04 15:01:00,70.0,58.0,29.80,WSW,244,8.0,13.0,66,-99.99,,,-99.99,,2013-07-04 22:01:00,
2013-07-04 15:11:00,71.0,59.0,29.80,West,268,6.0,12.0,65,-99.99,,,-99.99,,2013-07-04 22:11:00,
2013-07-04 15:22:00,70.0,59.0,29.80,WSW,237,13.0,16.0,67,-99.99,,,-99.99,,2013-07-04 22:22:00,
2013-07-04 15:33:00,70.0,59.0,29.80,WSW,257,3.0,14.0,67,-99.99,,,-99.99,,2013-07-04 22:33:00,
2013-07-04 15:43:00,70.0,59.0,29.80,WSW,257,3.0,14.0,67,-99.99,,,-99.99,,2013-07-04 22:43:00,
2013-07-04 15:52:00,70.0,59.0,29.80,WSW,257,3.0,14.0,67,-99.99,,,-99.99,,2013-07-04 22:52:00,
2013-07-04 16:01:00,69.0,58.0,29.80,WSW,239,5.0,16.0,69,-99.99,,,-99.99,,2013-07-04 23:01:00,
2013-07-04 16:11:00,70.0,59.0,29.80,West,265,2.0,13.0,69,-99.99,,,-99.99,,2013-07-04 23:11:00,
2013-07-04 16:23:00,70.0,59.0,29.79,WNW,282,7.0,12.0,68,-99.99,,,-99.99,,2013-07-04 23:23:00,
2013-07-04 16:33:00,70.0,59.0,29.79,SW,224,3.0,13.0,68,-99.99,,,-99.99,,2013-07-04 23:33:00,
2013-07-04 16:42:00,70.0,59.0,29.79,SW,224,3.0,13.0,68,-99.99,,,-99.99,,2013-07-04 23:42:00,
2013-07-04 16:52:00,70.0,59.0,29.79,SW,224,3.0,13.0,68,-99.99,,,-99.99,,2013-07-04 23:52:00,
2013-07-04 17:01:00,70.0,59.0,29.79,SW,224,3.0,13.0,68,-99.99,,,-99.99,,2013-07-05 00:01:00,
2013-07-04 17:11:00,70.0,59.0,29.79,SW,224,3.0,13.0,68,-99.99,,,-99.99,,2013-07-05 00:11:00,
2013-07-04 17:32:00,66.0,57.0,29.79,WSW,248,5.0,16.0,74,-99.99,,,-99.99,,2013-07-05 00:32:00,
2013-07-04 17:43:00,67.0,59.0,29.79,WSW,237,6.0,16.0,75,-99.99,,,-99.99,,2013-07-05 00:43:00,
2013-07-04 17:52:00,66.0,57.0,29.78,SW,217,9.0,14.0,74,-99.99,,,-99.99,,2013-07-05 00:52:00,
2013-07-04 18:01:00,66.0,59.0,29.78,WSW,237,11.0,13.0,77,-99.99,,,-99.99,,2013-07-05 01:01:00,
2013-07-04 18:11:00,66.0,59.0,29.78,WSW,237,11.0,13.0,77,-99.99,,,-99.99,,2013-07-05 01:11:00,
2013-07-04 18:21:00,65.0,58.0,29.78,West,265,5.0,12.0,78,-99.99,,,-99.99,,2013-07-05 01:21:00,
2013-07-04 18:32:00,65.0,58.0,29.78,West,265,5.0,12.0,78,-99.99,,,-99.99,,2013-07-05 01:32:00,
2013-07-04 18:42:00,65.0,58.0,29.78,West,265,5.0,12.0,78,-99.99,,,-99.99,,2013-07-05 01:42:00,
2013-07-04 18:52:00,65.0,58.0,29.78,West,265,5.0,12.0,78,-99.99,,,-99.99,,2013-07-05 01:52:00,
2013-07-04 19:02:00,65.0,58.0,29.78,SW,219,2.0,11.0,79,-99.99,,,-99.99,,2013-07-05 02:02:00,
2013-07-04 19:11:00,65.0,58.0,29.78,SW,219,2.0,11.0,79,-99.99,,,-99.99,,2013-07-05 02:11:00,
2013-07-04 19:21:00,65.0,58.0,29.78,SW,219,2.0,11.0,79,-99.99,,,-99.99,,2013-07-05 02:21:00,
2013-07-04 19:32:00,65.0,58.0,29.78,SW,219,2.0,11.0,79,-99.99,,,-99.99,,2013-07-05 02:32:00,
2013-07-04 19:42:00,64.0,58.0,29.78,SW,224,6.0,10.0,80,-99.99,,,-99.99,,2013-07-05 02:42:00,
2013-07-04 19:52:00,64.0,58.0,29.78,SW,224,6.0,10.0,80,-99.99,,,-99.99,,2013-07-05 02:52:00,
2013-07-04 20:02:00,64.0,58.0,29.78,SW,224,6.0,10.0,80,-99.99,,,-99.99,,2013-07-05 03:02:00,
2013-07-04 20:11:00,64.0,58.0,29.78,SW,224,6.0,10.0,80,-99.99,,,-99.99,,2013-07-05 03:11:00,
2013-07-04 20:21:00,63.0,56.0,29.78,SSW,213,5.0,8.0,78,-99.99,,,-99.99,,2013-07-05 03:21:00,
2013-07-04 20:33:00,63.0,56.0,29.78,SSW,213,5.0,8.0,78,-99.99,,,-99.99,,2013-07-05 03:33:00,
2013-07-04 20:42:00,63.0,56.0,29.78,SSW,213,5.0,8.0,78,-99.99,,,-99.99,,2013-07-05 03:42:00,
2013-07-04 20:52:00,63.0,56.0,29.78,SSW,213,5.0,8.0,78,-99.99,,,-99.99,,2013-07-05 03:52:00,
2013-07-04 21:01:00,63.0,56.0,29.78,SSW,213,5.0,8.0,78,-99.99,,,-99.99,,2013-07-05 04:01:00,
2013-07-04 21:11:00,63.0,55.0,29.79,SSW,200,3.0,7.0,74,-99.99,,,-99.99,,2013-07-05 04:11:00,
2013-07-04 21:21:00,62.0,54.0,29.79,SSW,203,2.0,6.0,75,-99.99,,,-99.99,,2013-07-05 04:21:00,
2013-07-04 21:33:00,62.0,55.0,29.79,SSW,212,2.0,6.0,77,-99.99,,,-99.99,,2013-07-05 04:33:00,
2013-07-04 21:43:00,62.0,55.0,29.79,SSW,212,2.0,6.0,77,-99.99,,,-99.99,,2013-07-05 04:43:00,
2013-07-04 21:53:00,60.0,54.0,29.80,SW,227,6.0,6.0,82,-99.99,,,-99.99,,2013-07-05 04:53:00,
2013-07-04 22:01:00,59.0,54.0,29.80,SSW,210,4.0,7.0,84,-99.99,,,-99.99,,2013-07-05 05:01:00,
2013-07-04 22:11:00,59.0,54.0,29.80,SSW,210,4.0,7.0,84,-99.99,,,-99.99,,2013-07-05 05:11:00,
2013-07-04 22:21:00,59.0,55.0,29.81,SW,215,4.0,6.0,86,-99.99,,,-99.99,,2013-07-05 05:21:00,
2013-07-04 22:33:00,59.0,55.0,29.81,SW,215,4.0,6.0,86,-99.99,,,-99.99,,2013-07-05 05:33:00,
2013-07-04 22:43:00,59.0,55.0,29.81,SW,215,4.0,6.0,86,-99.99,,,-99.99,,2013-07-05 05:43:00,
2013-07-04 22:52:00,58.0,55.0,29.81,SW,219,3.0,6.0,89,-99.99,,,-99.99,,2013-07-05 05:52:00,
2013-07-04 23:01:00,58.0,55.0,29.81,SW,219,3.0,6.0,89,-99.99,,,-99.99,,2013-07-05 06:01:00,
2013-07-04 23:13:00,58.0,55.0,29.81,SW,219,3.0,6.0,89,-99.99,,,-99.99,,2013-07-05 06:13:00,
2013-07-04 23:23:00,58.0,55.0,29.81,WSW,247,2.0,6.0,91,-99.99,,,-99.99,,2013-07-05 06:23:00,
2013-07-04 23:34:00,58.0,55.0,29.81,SSW,206,2.0,5.0,91,-99.99,,,-99.99,,2013-07-05 06:34:00,
2013-07-04 23:44:00,57.0,54.0,29.81,SW,219,3.0,3.0,91,-99.99,,,-99.99,,2013-07-05 06:44:00,
2013-07-04 23:53:00,57.0,55.0,29.81,SW,233,1.0,4.0,92,-99.99,,,-99.99,,2013-07-05 06:53:00,